tititudorancea.com
Station Historical Data
Daily Summary for January 2, 2019 Units:  Metric    English   Both
« Previous Day
Next Day »
Daily Weekly Monthly Yearly Custom
  High: Low: Average:
Temperature: -17.8 °C 13.7 °C 19.9 °C
Dew Point: -17.8 °C 10.3 °C 12 °C
Humidity: Humidity % 35 % 63 %
Wind Speed: 0 km/h 3.7 km/h 19.3 km/h
Wind Gust: 0 km/h - -
Wind:- - South
Pressure: 0 hPa 1008.7 hPa -
Precipitation: 0 mm    
Historical Graphs
 
 
Ararat weather Find more about Weather in Ararat, AU


 



 


Tabular Data for January 2, 2019
Time Temperature Dew Point Pressure Wind Wind Speed Wind Gust Humidity Rainfall Rate (Hourly)
-17.8 °C -17.8 °C 0 hPa Calm     Humidity % 0 mm
00:04 15 °C 11.9 °C 1012.1 hPa South 9.7 km/h 6 km/h 82 % 0 mm
00:09 14.9 °C 12 °C 1012.1 hPa South 11.1 km/h 6.4 km/h 83 % 0 mm
00:14 14.8 °C 11.9 °C 1012.1 hPa South 16.1 km/h 8.4 km/h 83 % 0 mm
00:19 14.8 °C 11.9 °C 1012.1 hPa South 14.8 km/h 7.2 km/h 83 % 0 mm
00:24 14.7 °C 12 °C 1011.7 hPa North 11.1 km/h 5 km/h 84 % 0 mm
00:29 14.6 °C 11.9 °C 1011.7 hPa South 11.1 km/h 7.2 km/h 84 % 0 mm
00:34 14.5 °C 11.8 °C 1011.7 hPa North 14.5 km/h 10.1 km/h 84 % 0 mm
00:39 14.4 °C 11.9 °C 1011.7 hPa South 12.9 km/h 5.5 km/h 85 % 0 mm
00:44 14.3 °C 11.8 °C 1011.7 hPa South 12.9 km/h 10.5 km/h 85 % 0 mm
00:49 14.3 °C 11.9 °C 1011.7 hPa South 16.7 km/h 8 km/h 86 % 0 mm
00:54 14.2 °C 11.8 °C 1011.7 hPa South 14.8 km/h 9.8 km/h 86 % 0 mm
00:59 14.1 °C 11.8 °C 1011.7 hPa South 18.5 km/h 9.3 km/h 86 % 0 mm
01:04 14.1 °C 11.7 °C 1011.4 hPa South 16.7 km/h 7.6 km/h 86 % 0 mm
01:09 14 °C 11.9 °C 1011.7 hPa South 18.5 km/h 8.9 km/h 87 % 0 mm
01:14 13.9 °C 11.8 °C 1011.4 hPa South 7.4 km/h 7.4 km/h 87 % 0 mm
01:19 13.9 °C 11.8 °C 1011.4 hPa South 11.1 km/h 9 km/h 87 % 0 mm
01:24 13.8 °C 11.9 °C 1011.4 hPa North 9.3 km/h 8.4 km/h 88 % 0 mm
01:29 13.8 °C 11.8 °C 1011.4 hPa South 13 km/h 8.2 km/h 88 % 0 mm
01:34 13.7 °C 11.8 °C 1011.1 hPa South 11.1 km/h 6 km/h 88 % 0 mm
01:39 13.7 °C 11.8 °C 1011.1 hPa South 9.3 km/h 3.5 km/h 88 % 0 mm
01:44 13.7 °C 11.9 °C 1011.1 hPa South 9.3 km/h 5.1 km/h 89 % 0 mm
01:49 13.7 °C 11.9 °C 1011.1 hPa North 3.7 km/h 2.1 km/h 89 % 0 mm
01:54 13.7 °C 11.9 °C 1011.1 hPa South 14.5 km/h 6.8 km/h 89 % 0 mm
01:59 13.7 °C 11.9 °C 1010.7 hPa South 11.3 km/h 4.7 km/h 89 % 0 mm
02:04 13.7 °C 11.9 °C 1010.7 hPa South 14.8 km/h 9 km/h 89 % 0 mm
02:09 13.8 °C 12 °C 1010.7 hPa South 16.1 km/h 11.1 km/h 89 % 0 mm
02:14 13.8 °C 12 °C 1010.4 hPa South 14.5 km/h 10.8 km/h 89 % 0 mm
02:19 13.9 °C 12.1 °C 1010.4 hPa South 13 km/h 11.6 km/h 89 % 0 mm
02:24 13.9 °C 12.2 °C 1010.4 hPa South 16.7 km/h 10.3 km/h 89 % 0 mm
02:29 14 °C 12.2 °C 1010.4 hPa North 16.7 km/h 5.5 km/h 89 % 0 mm
02:34 14.1 °C 12.3 °C 1010.4 hPa South 14.8 km/h 10.1 km/h 89 % 0 mm
02:39 14.1 °C 12.3 °C 1010.4 hPa South 11.1 km/h 9.3 km/h 89 % 0 mm
02:44 14.1 °C 12.3 °C 1010 hPa South 13 km/h 7.4 km/h 89 % 0 mm
02:49 14.1 °C 12.2 °C 1010 hPa North 11.1 km/h 8 km/h 88 % 0 mm
02:54 14.1 °C 12.2 °C 1010 hPa South 13 km/h 8.2 km/h 88 % 0 mm
02:59 14.1 °C 12.1 °C 1010 hPa South 13 km/h 9.5 km/h 88 % 0 mm
03:04 14 °C 12.1 °C 1010 hPa South 7.4 km/h 3.4 km/h 88 % 0 mm
03:09 13.9 °C 12 °C 1010 hPa South 8 km/h 7.9 km/h 88 % 0 mm
03:14 13.9 °C 11.9 °C 1010 hPa South 18.5 km/h 9.5 km/h 88 % 0 mm
03:19 13.9 °C 12.1 °C 1010 hPa North 18.5 km/h 11.4 km/h 89 % 0 mm
03:24 13.8 °C 12.1 °C 1010 hPa South 11.1 km/h 6.3 km/h 89 % 0 mm
03:29 13.8 °C 12.1 °C 1010 hPa South 16.7 km/h 9.2 km/h 89 % 0 mm
03:34 13.8 °C 12 °C 1010 hPa South 8 km/h 8.2 km/h 89 % 0 mm
03:39 13.8 °C 12.1 °C 1010 hPa South 14.8 km/h 8 km/h 89 % 0 mm
03:44 13.8 °C 11.9 °C 1010 hPa South 13 km/h 5.8 km/h 88 % 0 mm
03:49 13.9 °C 11.9 °C 1010 hPa South 16.7 km/h 6.9 km/h 88 % 0 mm
03:54 13.9 °C 12 °C 1010 hPa North 17.7 km/h 15.3 km/h 88 % 0 mm
03:59 13.9 °C 12 °C 1010 hPa South 20.4 km/h 13.7 km/h 88 % 0 mm
04:04 14 °C 12.1 °C 1010 hPa South 24.1 km/h 12.9 km/h 88 % 0 mm
04:09 14 °C 11.9 °C 1010 hPa South 20.4 km/h 12.6 km/h 87 % 0 mm
04:14 14 °C 11.9 °C 1010 hPa South 27.8 km/h 9.7 km/h 87 % 0 mm
04:19 14.1 °C 11.9 °C 1010.4 hPa South 20.4 km/h 10.6 km/h 87 % 0 mm
04:24 14.1 °C 11.7 °C 1010.4 hPa SSE 13 km/h 12.7 km/h 86 % 0 mm
04:29 14.1 °C 11.7 °C 1010.4 hPa South 20.4 km/h 14 km/h 86 % 0 mm
04:34 14.1 °C 11.7 °C 1010.4 hPa South 25.9 km/h 16.1 km/h 86 % 0 mm
04:39 14.1 °C 11.8 °C 1010.4 hPa South 18.5 km/h 12.7 km/h 86 % 0 mm
04:44 14.1 °C 11.8 °C 1010.4 hPa SSE 27.8 km/h 13.2 km/h 86 % 0 mm
04:49 14.2 °C 11.7 °C 1010.4 hPa SSE 18.5 km/h 8.4 km/h 85 % 0 mm
04:54 14.2 °C 11.7 °C 1010.4 hPa SSE 22.2 km/h 9.2 km/h 85 % 0 mm
04:59 14.2 °C 11.7 °C 1010.4 hPa SE 18.5 km/h 12.7 km/h 85 % 0 mm
05:04 14.2 °C 11.7 °C 1010.4 hPa South 25.9 km/h 15.6 km/h 85 % 0 mm
05:09 14.2 °C 11.7 °C 1010.4 hPa SSE 24.1 km/h 15 km/h 85 % 0 mm
05:14 14.2 °C 11.7 °C 1010.4 hPa SSE 18.5 km/h 11.6 km/h 85 % 0 mm
05:19 14.2 °C 11.7 °C 1010.4 hPa SSE 18.5 km/h 15.3 km/h 85 % 0 mm
05:24 14.2 °C 11.7 °C 1010.4 hPa South 24.1 km/h 16.1 km/h 85 % 0 mm
05:26 14.2 °C 11.7 °C 1010.4 hPa SSE 22.2 km/h 14.6 km/h 85 % 0 mm
07:54 14.6 °C 11.7 °C 1011.4 hPa SSE 18.5 km/h 14.5 km/h 83 % 0 mm
07:59 14.6 °C 11.7 °C 1011.4 hPa SSE 20.4 km/h 13.7 km/h 83 % 0 mm
08:04 14.7 °C 12 °C 1011.7 hPa SSE 22.2 km/h 12.7 km/h 84 % 0 mm
08:09 14.8 °C 11.9 °C 1011.7 hPa SSE 22.5 km/h 16.9 km/h 83 % 0 mm
08:14 15.1 °C 12.2 °C 1011.7 hPa SE 16.7 km/h 8.5 km/h 83 % 0 mm
08:19 15.3 °C 12.2 °C 1011.7 hPa SSE 22.2 km/h 10.9 km/h 82 % 0 mm
08:24 15.4 °C 12.2 °C 1011.7 hPa SSE 20.4 km/h 12.9 km/h 81 % 0 mm
08:29 15.8 °C 12.7 °C 1011.7 hPa SSE 14.8 km/h 19 km/h 82 % 0 mm
08:34 16.1 °C 12.6 °C 1011.7 hPa SE 22.2 km/h 15 km/h 80 % 0 mm
08:39 16.3 °C 12.4 °C 1011.7 hPa North 24.1 km/h 12.6 km/h 78 % 0 mm
08:44 16.6 °C 12.7 °C 1011.7 hPa SSE 22.2 km/h 22.2 km/h 78 % 0 mm
08:49 16.4 °C 12.3 °C 1011.7 hPa SSE 18.5 km/h 16.6 km/h 77 % 0 mm
08:54 16.4 °C 12.3 °C 1011.7 hPa SE 20.4 km/h 17.5 km/h 77 % 0 mm
08:59 16.4 °C 12.6 °C 1011.7 hPa SE 25.9 km/h 21.6 km/h 78 % 0 mm
09:04 16.6 °C 12.8 °C 1011.7 hPa SSE 18.5 km/h 12.2 km/h 78 % 0 mm
09:09 16.7 °C 12.6 °C 1011.7 hPa South 25.9 km/h 15 km/h 77 % 0 mm
09:14 16.7 °C 12.7 °C 1012.1 hPa SSE 20.9 km/h 13.8 km/h 77 % 0 mm
09:19 16.7 °C 12.4 °C 1011.7 hPa South 24.1 km/h 12.9 km/h 76 % 0 mm
09:24 16.7 °C 12.6 °C 1011.7 hPa SSW 18.5 km/h 13.4 km/h 77 % 0 mm
09:29 16.8 °C 12.6 °C 1011.7 hPa South 25.9 km/h 17.2 km/h 76 % 0 mm
09:34 16.8 °C 12.5 °C 1011.7 hPa South 22.2 km/h 14.3 km/h 76 % 0 mm
09:39 16.9 °C 12.6 °C 1011.7 hPa SSE 24.1 km/h 8 km/h 76 % 0 mm
09:44 17.2 °C 12.9 °C 1012.1 hPa South 27.8 km/h 17.7 km/h 76 % 0 mm
09:49 17.7 °C 12.8 °C 1012.1 hPa South 31.5 km/h 15.3 km/h 73 % 0 mm
09:54 18 °C 12.9 °C 1012.1 hPa SSE 20.4 km/h 16.6 km/h 72 % 0 mm
09:59 18 °C 12.9 °C 1011.7 hPa South 29.6 km/h 18.8 km/h 72 % 0 mm
10:04 17.9 °C 12.8 °C 1011.7 hPa SSE 18.5 km/h 15.6 km/h 72 % 0 mm
10:09 18.4 °C 13.2 °C 1012.1 hPa SSW 22.2 km/h 14.8 km/h 72 % 0 mm
10:14 18.6 °C 13.1 °C 1011.7 hPa SSE 22.2 km/h 17.5 km/h 70 % 0 mm
10:19 18.8 °C 13 °C 1011.7 hPa SSE 18.5 km/h 12.9 km/h 69 % 0 mm
10:24 19.3 °C 13 °C 1011.7 hPa South 20.4 km/h 14.8 km/h 67 % 0 mm
10:29 19.2 °C 12.9 °C 1011.7 hPa SSE 31.5 km/h 21.2 km/h 67 % 0 mm
10:34 19.1 °C 13 °C 1011.7 hPa SSE 27.8 km/h 14.6 km/h 68 % 0 mm
10:39 19.2 °C 12.9 °C 1011.7 hPa SSE 25.9 km/h 15.8 km/h 67 % 0 mm
10:44 19.3 °C 13 °C 1011.7 hPa South 22.5 km/h 8.7 km/h 67 % 0 mm
10:49 19.7 °C 12.9 °C 1011.7 hPa South 16.7 km/h 16.3 km/h 65 % 0 mm
10:54 19.7 °C 12.7 °C 1011.7 hPa SSE 20.4 km/h 15.1 km/h 64 % 0 mm
10:59 20.1 °C 13.1 °C 1011.7 hPa South 18.5 km/h 12.4 km/h 64 % 0 mm
11:04 20.6 °C 12.8 °C 1011.7 hPa SSW 24.1 km/h 15.3 km/h 61 % 0 mm
11:09 20.4 °C 12.9 °C 1011.7 hPa SSE 14.8 km/h 8 km/h 62 % 0 mm
11:14 20.7 °C 12.4 °C 1011.7 hPa South 29.6 km/h 15.4 km/h 59 % 0 mm
11:19 20.7 °C 12.6 °C 1011.7 hPa South 22.2 km/h 11.6 km/h 60 % 0 mm
11:24 20.9 °C 12.8 °C 1011.4 hPa SSE 14.8 km/h 10.6 km/h 60 % 0 mm
11:29 21.2 °C 12.8 °C 1011.7 hPa SSE 27.8 km/h 15 km/h 59 % 0 mm
11:34 21.5 °C 12.9 °C 1011.7 hPa SSE 20.4 km/h 18.3 km/h 58 % 0 mm
11:39 21.8 °C 12.9 °C 1011.4 hPa SSE 18.5 km/h 12.7 km/h 57 % 0 mm
11:44 22.1 °C 13.2 °C 1011.4 hPa SE 24.1 km/h 18.3 km/h 57 % 0 mm
11:49 22.2 °C 13 °C 1011.4 hPa SSE 18.5 km/h 16.9 km/h 56 % 0 mm
11:54 22.2 °C 13 °C 1011.4 hPa SSE 22.2 km/h 13.8 km/h 56 % 0 mm
11:59 22.2 °C 13.3 °C 1011.4 hPa SE 20.4 km/h 15.6 km/h 57 % 0 mm
12:04 22.4 °C 12.6 °C 1011.4 hPa SSE 18.5 km/h 13.4 km/h 54 % 0 mm
12:09 22.4 °C 12.9 °C 1011.4 hPa SSE 18.5 km/h 12.9 km/h 55 % 0 mm
12:14 22.4 °C 12.7 °C 1011.1 hPa SSE 25.9 km/h 15.3 km/h 54 % 0 mm
12:19 22.9 °C 13.4 °C 1011.1 hPa SE 24.1 km/h 13 km/h 55 % 0 mm
12:24 23.4 °C 13.3 °C 1011.1 hPa SE 20.4 km/h 16.6 km/h 53 % 0 mm
12:29 23.2 °C 12.2 °C 1011.1 hPa South 22.5 km/h 16.6 km/h 50 % 0 mm
12:34 22.9 °C 12.8 °C 1011.1 hPa South 22.2 km/h 17.2 km/h 53 % 0 mm
12:39 23.1 °C 13 °C 1011.1 hPa SE 18.5 km/h 10.5 km/h 53 % 0 mm
12:44 23.9 °C 12.8 °C 1011.1 hPa South 20.4 km/h 14 km/h 50 % 0 mm
12:49 23.8 °C 12.7 °C 1011.1 hPa SSE 25.9 km/h 18.7 km/h 50 % 0 mm
12:54 23.7 °C 12.9 °C 1010.7 hPa SSE 16.7 km/h 7.9 km/h 51 % 0 mm
12:59 24.2 °C 12.8 °C 1010.7 hPa SSW 20.4 km/h 15.8 km/h 49 % 0 mm
13:04 24.2 °C 12.5 °C 1010.7 hPa SSE 29.6 km/h 22.4 km/h 48 % 0 mm
13:09 24.1 °C 12.4 °C 1010.7 hPa SSE 18.5 km/h 14 km/h 48 % 0 mm
13:14 24.1 °C 12.4 °C 1010.7 hPa SSE 22.2 km/h 15.3 km/h 48 % 0 mm
13:19 24.4 °C 12.7 °C 1010.7 hPa South 14.8 km/h 10.8 km/h 48 % 0 mm
13:24 24.4 °C 12.4 °C 1010.7 hPa South 20.4 km/h 14.2 km/h 47 % 0 mm
13:29 24.6 °C 12.6 °C 1010.7 hPa SSW 19.3 km/h 14.3 km/h 47 % 0 mm
13:34 24.6 °C 12.2 °C 1010.7 hPa South 16.1 km/h 14.2 km/h 46 % 0 mm
13:39 25.2 °C 13.1 °C 1010.4 hPa SSE 17.7 km/h 12.1 km/h 47 % 0 mm
13:44 25.6 °C 13.1 °C 1010.4 hPa SSE 22.2 km/h 12.2 km/h 46 % 0 mm
13:49 25.3 °C 12.2 °C 1010.4 hPa SSE 16.7 km/h 13 km/h 44 % 0 mm
13:54 25.1 °C 12 °C 1010.4 hPa South 20.9 km/h 14.5 km/h 44 % 0 mm
13:59 25 °C 11.9 °C 1010 hPa South 24.1 km/h 16.9 km/h 44 % 0 mm
14:04 25.1 °C 12.3 °C 1010 hPa SSW 24.1 km/h 14.2 km/h 45 % 0 mm
14:09 25.4 °C 12.9 °C 1010 hPa South 13 km/h 10.3 km/h 46 % 0 mm
14:14 25.8 °C 12.3 °C 1010 hPa South 17.7 km/h 12.7 km/h 43 % 0 mm
14:19 25.9 °C 12.4 °C 1010 hPa SSE 22.2 km/h 18.3 km/h 43 % 0 mm
14:24 25.9 °C 13.1 °C 1010 hPa SSE 12.9 km/h 8.9 km/h 45 % 0 mm
14:29 26.2 °C 12.2 °C 1010 hPa South 18.5 km/h 11.4 km/h 42 % 0 mm
14:34 26.8 °C 12.8 °C 1010 hPa South 25.9 km/h 20.3 km/h 42 % 0 mm
14:39 26.7 °C 12.4 °C 1010 hPa SSE 16.7 km/h 11.4 km/h 41 % 0 mm
14:44 26.8 °C 12.8 °C 1010 hPa SSE 27.8 km/h 15.3 km/h 42 % 0 mm
14:49 26.8 °C 12.5 °C 1009.7 hPa South 19.3 km/h 12.9 km/h 41 % 0 mm
14:54 26.6 °C 12.3 °C 1009.7 hPa SE 24.1 km/h 16.3 km/h 41 % 0 mm
14:59 26.5 °C 12.2 °C 1009.7 hPa SE 18.5 km/h 12.6 km/h 41 % 0 mm
15:04 26.8 °C 12.1 °C 1009.7 hPa SE 20.4 km/h 12.9 km/h 40 % 0 mm
15:09 27.1 °C 12.3 °C 1009.7 hPa SSE 22.2 km/h 8.5 km/h 40 % 0 mm
15:14 27 °C 12.2 °C 1009.7 hPa SSE 18.5 km/h 11.4 km/h 40 % 0 mm
15:19 26.7 °C 11.6 °C 1009.7 hPa South 18.5 km/h 8.9 km/h 39 % 0 mm
15:24 26.6 °C 11.9 °C 1009.7 hPa SE 22.2 km/h 17.2 km/h 40 % 0 mm
15:29 26.8 °C 11.7 °C 1009.7 hPa SE 18.5 km/h 13.5 km/h 39 % 0 mm
15:34 27.2 °C 12.4 °C 1009.7 hPa SSE 18.5 km/h 11.4 km/h 40 % 0 mm
15:39 27.1 °C 11.9 °C 1009.7 hPa SSE 18.5 km/h 13.4 km/h 39 % 0 mm
15:44 27.1 °C 12.3 °C 1009.7 hPa South 24.1 km/h 9.7 km/h 40 % 0 mm
15:49 27.2 °C 12.1 °C 1009.7 hPa South 19.3 km/h 14.5 km/h 39 % 0 mm
15:54 27.4 °C 11.9 °C 1009.7 hPa SSE 18.5 km/h 11.3 km/h 38 % 0 mm
15:59 27.6 °C 12.7 °C 1009.7 hPa SSE 20.4 km/h 14.8 km/h 40 % 0 mm
16:04 27.3 °C 11.8 °C 1009.4 hPa SSE 18.5 km/h 12.6 km/h 38 % 0 mm
16:09 27.2 °C 12.1 °C 1009.4 hPa SW 16.7 km/h 10.1 km/h 39 % 0 mm
16:14 27.2 °C 12 °C 1009.4 hPa South 27.8 km/h 17.1 km/h 39 % 0 mm
16:19 27.2 °C 12.1 °C 1009.4 hPa South 22.2 km/h 11.3 km/h 39 % 0 mm
16:24 27.4 °C 12.3 °C 1009.4 hPa South 13 km/h 7.1 km/h 39 % 0 mm
16:29 27.3 °C 11.3 °C 1009.4 hPa South 25.9 km/h 12.9 km/h 37 % 0 mm
16:34 27.4 °C 12.3 °C 1009 hPa SSE 27.8 km/h 13.4 km/h 39 % 0 mm
16:39 27.4 °C 11.8 °C 1009 hPa South 29.6 km/h 17.4 km/h 38 % 0 mm
16:44 27.1 °C 12.3 °C 1009 hPa SE 18.5 km/h 11.1 km/h 40 % 0 mm
16:49 27.3 °C 11.7 °C 1009 hPa SSE 20.4 km/h 14 km/h 38 % 0 mm
16:54 27.4 °C 11.4 °C 1009 hPa SSE 24.1 km/h 14.2 km/h 37 % 0 mm
16:59 27.4 °C 11.4 °C 1009 hPa SSW 18.5 km/h 11.6 km/h 37 % 0 mm
17:04 27.6 °C 11.6 °C 1009 hPa SE 18.5 km/h 11.7 km/h 37 % 0 mm
17:09 27.4 °C 11 °C 1009 hPa South 27.4 km/h 11.4 km/h 36 % 0 mm
17:14 27.4 °C 11.4 °C 1009 hPa South 16.7 km/h 13.5 km/h 37 % 0 mm
17:19 27.3 °C 11.7 °C 1009 hPa SSE 18.5 km/h 11.3 km/h 38 % 0 mm
17:24 27.2 °C 11.3 °C 1008.7 hPa South 18.5 km/h 11.6 km/h 37 % 0 mm
17:29 27.1 °C 10.7 °C 1008.7 hPa SSW 22.5 km/h 15.8 km/h 36 % 0 mm
17:34 26.9 °C 11 °C 1008.7 hPa SSW 20.4 km/h 14.2 km/h 37 % 0 mm
17:39 27.2 °C 10.8 °C 1008.7 hPa South 27.8 km/h 13.2 km/h 36 % 0 mm
17:44 27.4 °C 11 °C 1008.7 hPa South 20.4 km/h 13.2 km/h 36 % 0 mm
17:49 27.2 °C 10.8 °C 1009 hPa South 18.5 km/h 13.5 km/h 36 % 0 mm
17:54 27.1 °C 10.3 °C 1008.7 hPa South 22.2 km/h 12.2 km/h 35 % 0 mm
17:59 27 °C 11.1 °C 1008.7 hPa South 29.6 km/h 17.5 km/h 37 % 0 mm
18:04 26.9 °C 11 °C 1008.7 hPa SE 14.8 km/h 10.9 km/h 37 % 0 mm
18:09 26.9 °C 10.9 °C 1008.7 hPa South 18.5 km/h 17.9 km/h 37 % 0 mm
18:14 26.6 °C 11.1 °C 1008.7 hPa SSE 13 km/h 10.5 km/h 38 % 0 mm
18:19 26.7 °C 11.2 °C 1008.7 hPa SSW 14.8 km/h 13.5 km/h 38 % 0 mm
18:24 26.7 °C 10.8 °C 1008.7 hPa South 20.4 km/h 12.7 km/h 37 % 0 mm
18:29 26.9 °C 11 °C 1008.7 hPa South 19.3 km/h 12.1 km/h 37 % 0 mm
18:34 26.9 °C 11 °C 1008.7 hPa South 18.5 km/h 8.2 km/h 37 % 0 mm
18:39 27.1 °C 11.1 °C 1008.7 hPa SSW 14.8 km/h 16.6 km/h 37 % 0 mm
18:44 26.9 °C 11 °C 1008.7 hPa South 20.4 km/h 15.1 km/h 37 % 0 mm
18:49 26.8 °C 10.9 °C 1008.7 hPa South 20.4 km/h 17.1 km/h 37 % 0 mm
18:54 26.4 °C 11 °C 1008.7 hPa South 25.7 km/h 20.3 km/h 38 % 0 mm
18:59 26.4 °C 10.9 °C 1008.7 hPa South 25.9 km/h 17.1 km/h 38 % 0 mm
19:04 26.3 °C 12 °C 1008.7 hPa SSW 27.8 km/h 19.5 km/h 41 % 0 mm
19:09 26 °C 12.1 °C 1008.7 hPa SSW 29.6 km/h 19.2 km/h 42 % 0 mm
19:14 25.5 °C 12.3 °C 1008.7 hPa SW 29.6 km/h 18.3 km/h 44 % 0 mm
19:19 25.4 °C 12.6 °C 1009 hPa South 22.2 km/h 18.5 km/h 45 % 0 mm
19:24 25.3 °C 12.5 °C 1009 hPa South 22.2 km/h 20 km/h 45 % 0 mm
19:29 25 °C 12.6 °C 1009 hPa South 20.4 km/h 9.5 km/h 46 % 0 mm
19:34 24.8 °C 12.8 °C 1009.4 hPa South 24.1 km/h 12.7 km/h 47 % 0 mm
19:39 24.4 °C 12.7 °C 1009.4 hPa SSW 20.9 km/h 14.3 km/h 48 % 0 mm
19:44 24.2 °C 12.8 °C 1009.4 hPa South 11.1 km/h 11.6 km/h 49 % 0 mm
19:49 23.9 °C 12.5 °C 1009.4 hPa South 31.5 km/h 15 km/h 49 % 0 mm
19:54 23.7 °C 12.7 °C 1009.4 hPa South 29.6 km/h 10.8 km/h 50 % 0 mm
19:59 23.4 °C 12.7 °C 1009.7 hPa SSE 31.5 km/h 20.6 km/h 51 % 0 mm
20:04 23.1 °C 12.4 °C 1009.7 hPa South 24.1 km/h 16.6 km/h 51 % 0 mm
20:09 22.9 °C 12.6 °C 1009.7 hPa SSW 22.2 km/h 9.5 km/h 52 % 0 mm
20:14 22.8 °C 12.4 °C 1009.7 hPa South 13 km/h 9.2 km/h 52 % 0 mm
20:19 22.5 °C 12.2 °C 1009.7 hPa South 24.1 km/h 14.5 km/h 52 % 0 mm
20:24 22.2 °C 12.2 °C 1010 hPa SSE 20.4 km/h 15.4 km/h 53 % 0 mm
20:29 21.9 °C 12.2 °C 1010 hPa South 22.2 km/h 10.9 km/h 54 % 0 mm
20:34 21.6 °C 11.9 °C 1010 hPa South 18.5 km/h 9.8 km/h 54 % 0 mm
20:39 21.4 °C 12 °C 1010 hPa South 16.7 km/h 10.8 km/h 55 % 0 mm
20:44 21.2 °C 12.1 °C 1010 hPa South 14.8 km/h 11.7 km/h 56 % 0 mm
20:49 21 °C 12.2 °C 1010 hPa South 16.7 km/h 7.1 km/h 57 % 0 mm
20:54 20.8 °C 11.9 °C 1010.4 hPa South 27.8 km/h 16.6 km/h 57 % 0 mm
20:59 20.6 °C 12.1 °C 1010.4 hPa South 18.5 km/h 10.3 km/h 58 % 0 mm
21:04 20.4 °C 12.1 °C 1010.4 hPa South 19.3 km/h 12.6 km/h 59 % 0 mm
21:06 20.3 °C 12.1 °C 1010.4 hPa South 18.5 km/h 12.6 km/h 59 % 0 mm
21:19 19.7 °C 12 °C 1010.7 hPa South 29.6 km/h 16.7 km/h 61 % 0 mm
21:24 19.5 °C 12 °C 1010.7 hPa SSW 14.8 km/h 12.2 km/h 62 % 0 mm
21:29 19.3 °C 11.8 °C 1010.7 hPa South 16.7 km/h 11.7 km/h 62 % 0 mm
21:32 19.2 °C 11.8 °C 1010.7 hPa South 18.5 km/h 12.4 km/h 62 % 0 mm
21:39 18.8 °C 11.6 °C 1010.7 hPa South 18.5 km/h 18.5 km/h 63 % 0 mm
21:44 18.6 °C 11.6 °C 1011.1 hPa SSW 18.5 km/h 9 km/h 64 % 0 mm
21:49 18.3 °C 11.6 °C 1011.1 hPa South 22.2 km/h 14.2 km/h 65 % 0 mm
21:54 18.2 °C 11.7 °C 1011.1 hPa SSW 16.7 km/h 18 km/h 66 % 0 mm
21:59 17.9 °C 11.5 °C 1011.1 hPa North 13 km/h 8.5 km/h 66 % 0 mm
22:04 17.7 °C 11.7 °C 1011.1 hPa SSW 20.4 km/h 16.1 km/h 68 % 0 mm
22:09 17.6 °C 11.6 °C 1011.1 hPa SSW 14.8 km/h 9.2 km/h 68 % 0 mm
22:13 17.4 °C 11.7 °C 1011.1 hPa SSW 22.2 km/h 12.1 km/h 69 % 0 mm
22:24 17.1 °C 11.6 °C 1011.1 hPa South 18.5 km/h 13 km/h 70 % 0 mm
22:29 16.9 °C 11.7 °C 1011.1 hPa SSW 16.7 km/h 10.8 km/h 71 % 0 mm
22:34 16.8 °C 11.8 °C 1011.1 hPa SSW 18.5 km/h 13 km/h 72 % 0 mm
22:39 16.7 °C 11.7 °C 1011.1 hPa SSW 16.7 km/h 11.3 km/h 72 % 0 mm
22:44 16.6 °C 11.5 °C 1011.1 hPa South 12.9 km/h 9.5 km/h 72 % 0 mm
22:49 16.4 °C 11.6 °C 1011.4 hPa SSW 14.8 km/h 12.4 km/h 73 % 0 mm
22:54 16.3 °C 11.6 °C 1011.1 hPa SSW 16.7 km/h 10.1 km/h 74 % 0 mm
22:59 16.2 °C 11.5 °C 1011.1 hPa SSW 18.5 km/h 14.5 km/h 74 % 0 mm
23:04 16.1 °C 11.6 °C 1011.1 hPa SSW 18.5 km/h 13.7 km/h 75 % 0 mm
23:09 15.9 °C 11.4 °C 1011.1 hPa South 16.7 km/h 12.4 km/h 75 % 0 mm
23:14 15.8 °C 11.6 °C 1011.4 hPa South 16.7 km/h 10.5 km/h 76 % 0 mm
23:19 15.7 °C 11.7 °C 1011.4 hPa North 16.1 km/h 9.7 km/h 77 % 0 mm
23:24 15.6 °C 11.6 °C 1011.4 hPa North 17.7 km/h 12.6 km/h 77 % 0 mm
23:29 15.4 °C 11.6 °C 1011.4 hPa SSW 18.5 km/h 17.7 km/h 78 % 0 mm
23:34 15.3 °C 11.5 °C 1011.4 hPa SSW 17.7 km/h 14.8 km/h 78 % 0 mm
23:39 15.2 °C 11.6 °C 1011.4 hPa SSW 14.8 km/h 10.8 km/h 79 % 0 mm
23:44 15.1 °C 11.5 °C 1011.4 hPa SSW 14.8 km/h 14 km/h 79 % 0 mm
23:49 15 °C 11.6 °C 1011.4 hPa SSW 18.5 km/h 13.8 km/h 80 % 0 mm
23:54 14.9 °C 11.4 °C 1011.4 hPa SSW 14.8 km/h 9.2 km/h 80 % 0 mm
23:59 14.8 °C 11.4 °C 1011.4 hPa SSW 14.8 km/h 11.4 km/h 80 % 0 mm
Ararat Weather
Compliments of Weather Underground - 2 mb
Click here to send mail.


ABOUT

Live weather data from Ararat, Victoria, Australia, 3377
Data uploaded from Cumulus every 5 minutes to Weather Underground.
This site then downloads the raw data for formatting and display.
Metric and imperial data can be displayed. Graphs and historical data available.
Includes Sun and Moon times and rain image live from BOM.

Check out Ararat Weather on Facebook, Twitter and Google +

Help support ongoing costs by checking out the ads





Follow @AraratWeather